• In Belarus
  • List of Countries
  • For 7 days
  • Water Temperature
  • Satellite Maps
  • Weather Map
  • Weather Widgets
  • user-avatar
    Login

    Hourly Weather Asadabad

    Today, 15 July, Monday

    Time Temperature Precipitation Wind Pressure Humidity
    00:00 +27°C° 0.8 mm 1 mps 652 mmHg 78%
    01:00 +26°C° 0.8 mm 1 mps 651 mmHg 77%
    02:00 +26°C° 0.8 mm 1 mps 651 mmHg 76%
    03:00 +25°C° 0.2 mm 1 mps 651 mmHg 75%
    04:00 +25°C° 0.2 mm 1 mps 650 mmHg 75%
    05:00 +25°C° 0 mm 1 mps 651 mmHg 75%
    06:00 +26°C° 0.1 mm 1 mps 651 mmHg 71%
    07:00 +26°C° 0.1 mm 1 mps 651 mmHg 67%
    08:00 +27°C° 0.1 mm 1 mps 651 mmHg 63%
    09:00 +28°C° 0 mm 2 mps 651 mmHg 60%
    10:00 +29°C° 0 mm 2 mps 652 mmHg 58%
    11:00 +30°C° 0 mm 3 mps 652 mmHg 56%
    12:00 +31°C° 0 mm 3 mps 652 mmHg 54%
    13:00 +33°C° 0 mm 3 mps 651 mmHg 52%
    14:00 +33°C° 0 mm 3 mps 651 mmHg 49%
    15:00 +33°C° 0.1 mm 3 mps 651 mmHg 51%
    16:00 +33°C° 0.1 mm 3 mps 651 mmHg 52%
    17:00 +32°C° 0 mm 4 mps 651 mmHg 54%
    18:00 +30°C° 0.5 mm 3 mps 651 mmHg 59%
    19:00 +29°C° 0.5 mm 2 mps 651 mmHg 64%
    20:00 +28°C° 0.5 mm 2 mps 651 mmHg 69%
    21:00 +27°C° 0.1 mm 1 mps 652 mmHg 71%
    22:00 +27°C° 0.1 mm 1 mps 652 mmHg 72%
    23:00 +27°C° 0.1 mm 1 mps 653 mmHg 73%

    Tomorrow, 16 July, Tuesday

    Time Temperature Precipitation Wind Pressure Humidity
    00:00 +26°C° 0.1 mm 1 mps 652 mmHg 74%
    01:00 +26°C° 0.1 mm 1 mps 652 mmHg 75%
    02:00 +24°C° 0.1 mm 0 mps 652 mmHg 76%
    03:00 +23°C° 0 mm 0 mps 652 mmHg 77%
    04:00 +23°C° 0 mm 0 mps 652 mmHg 78%
    05:00 +23°C° 0 mm 0 mps 652 mmHg 79%
    06:00 +26°C° 0 mm 1 mps 652 mmHg 74%
    07:00 +27°C° 0 mm 1 mps 653 mmHg 70%
    08:00 +27°C° 0 mm 1 mps 653 mmHg 66%
    09:00 +29°C° 0 mm 1 mps 653 mmHg 61%
    10:00 +30°C° 0 mm 2 mps 653 mmHg 56%
    11:00 +31°C° 0 mm 3 mps 654 mmHg 51%
    12:00 +33°C° 0 mm 3 mps 653 mmHg 49%
    13:00 +34°C° 0 mm 3 mps 653 mmHg 48%
    14:00 +34°C° 0 mm 4 mps 653 mmHg 46%
    15:00 +34°C° 0.3 mm 3 mps 653 mmHg 47%
    16:00 +34°C° 0.3 mm 3 mps 653 mmHg 49%
    17:00 +34°C° 0.3 mm 3 mps 653 mmHg 50%
    18:00 +33°C° 0.7 mm 3 mps 653 mmHg 54%
    19:00 +31°C° 0.7 mm 2 mps 653 mmHg 58%
    20:00 +30°C° 0.7 mm 2 mps 653 mmHg 62%
    21:00 +29°C° 0.4 mm 1 mps 653 mmHg 64%
    22:00 +29°C° 0.4 mm 1 mps 654 mmHg 66%
    23:00 +29°C° 0.4 mm 1 mps 654 mmHg 67%

    Day after tomorrow, 17 July, Wednesday

    Time Temperature Precipitation Wind Pressure Humidity
    00:00 +28°C° 0.3 mm 1 mps 654 mmHg 68%
    01:00 +28°C° 0.3 mm 1 mps 653 mmHg 70%
    02:00 +27°C° 0.3 mm 1 mps 653 mmHg 71%
    03:00 +27°C° 0.3 mm 1 mps 653 mmHg 73%
    04:00 +24°C° 0.3 mm 0 mps 653 mmHg 75%
    05:00 +24°C° 0.3 mm 0 mps 653 mmHg 76%
    06:00 +25°C° 0 mm 0 mps 653 mmHg 71%
    07:00 +28°C° 0 mm 1 mps 654 mmHg 66%
    08:00 +29°C° 0 mm 1 mps 654 mmHg 60%
    09:00 +30°C° 0 mm 1 mps 654 mmHg 57%
    10:00 +31°C° 0 mm 2 mps 654 mmHg 53%
    11:00 +32°C° 0 mm 2 mps 654 mmHg 50%
    12:00 +34°C° 0 mm 3 mps 654 mmHg 48%
    13:00 +35°C° 0 mm 3 mps 654 mmHg 46%
    14:00 +35°C° 0 mm 4 mps 654 mmHg 44%
    15:00 +35°C° 0.1 mm 4 mps 654 mmHg 47%
    16:00 +35°C° 0.1 mm 4 mps 653 mmHg 49%
    17:00 +34°C° 0.1 mm 4 mps 653 mmHg 52%
    18:00 +33°C° 0.5 mm 3 mps 653 mmHg 56%
    19:00 +31°C° 0.5 mm 2 mps 653 mmHg 61%
    20:00 +30°C° 0.5 mm 1 mps 653 mmHg 65%
    21:00 +29°C° 0.2 mm 1 mps 654 mmHg 72%
    22:00 +29°C° 0.2 mm 1 mps 654 mmHg 73%
    23:00 +28°C° 0.2 mm 1 mps 654 mmHg 75%

    18 July, Thursday

    Time Temperature Precipitation Wind Pressure Humidity
    00:00 +26°C° 0.1 mm 0 mps 654 mmHg 77%
    01:00 +25°C° 0.1 mm 0 mps 653 mmHg 78%
    02:00 +25°C° 0.1 mm 0 mps 653 mmHg 80%
    03:00 +25°C° 0.1 mm 0 mps 653 mmHg 79%
    04:00 +24°C° 0.1 mm 0 mps 653 mmHg 79%
    05:00 +24°C° 0.1 mm 0 mps 653 mmHg 78%
    06:00 +25°C° 0 mm 0 mps 653 mmHg 73%
    07:00 +26°C° 0 mm 0 mps 653 mmHg 69%
    08:00 +29°C° 0 mm 1 mps 653 mmHg 64%
    09:00 +30°C° 0 mm 1 mps 653 mmHg 60%
    10:00 +31°C° 0 mm 2 mps 654 mmHg 56%
    11:00 +32°C° 0 mm 2 mps 654 mmHg 51%
    12:00 +34°C° 0 mm 3 mps 654 mmHg 50%
    13:00 +35°C° 0 mm 3 mps 653 mmHg 48%
    14:00 +35°C° 0 mm 3 mps 653 mmHg 47%
    15:00 +35°C° 0.2 mm 3 mps 653 mmHg 48%
    16:00 +35°C° 0.2 mm 3 mps 653 mmHg 50%
    17:00 +34°C° 0.2 mm 3 mps 653 mmHg 52%
    18:00 +34°C° 0.3 mm 3 mps 653 mmHg 56%
    19:00 +32°C° 0.3 mm 2 mps 653 mmHg 60%
    20:00 +31°C° 0.3 mm 1 mps 653 mmHg 64%
    21:00 +30°C° 0.1 mm 1 mps 654 mmHg 66%
    22:00 +30°C° 0.1 mm 1 mps 654 mmHg 67%
    23:00 +28°C° 0.1 mm 0 mps 654 mmHg 69%

    19 July, Friday

    Time Temperature Precipitation Wind Pressure Humidity
    00:00 +27°C° 0.2 mm 0 mps 654 mmHg 71%
    01:00 +27°C° 0.2 mm 0 mps 654 mmHg 72%
    02:00 +26°C° 0.2 mm 0 mps 653 mmHg 74%
    03:00 +26°C° 0.2 mm 0 mps 653 mmHg 73%
    04:00 +26°C° 0.2 mm 0 mps 653 mmHg 73%
    05:00 +27°C° 0.2 mm 1 mps 653 mmHg 73%
    06:00 +28°C° 0 mm 1 mps 654 mmHg 67%
    07:00 +29°C° 0 mm 1 mps 654 mmHg 62%
    08:00 +30°C° 0 mm 1 mps 654 mmHg 57%
    09:00 +31°C° 0 mm 1 mps 655 mmHg 54%
    10:00 +32°C° 0 mm 2 mps 655 mmHg 52%
    11:00 +35°C° 0 mm 3 mps 655 mmHg 49%
    12:00 +35°C° 0 mm 3 mps 655 mmHg 48%
    13:00 +36°C° 0 mm 3 mps 655 mmHg 47%
    14:00 +36°C° 0 mm 4 mps 655 mmHg 47%
    15:00 +36°C° 0.5 mm 4 mps 654 mmHg 49%
    16:00 +35°C° 0.5 mm 3 mps 654 mmHg 52%
    17:00 +34°C° 0.5 mm 3 mps 654 mmHg 55%
    18:00 +34°C° 0.7 mm 2 mps 654 mmHg 59%
    19:00 +32°C° 0.7 mm 2 mps 654 mmHg 63%
    20:00 +31°C° 0.7 mm 1 mps 654 mmHg 67%
    21:00 +31°C° 0.2 mm 1 mps 655 mmHg 69%
    22:00 +30°C° 0.2 mm 1 mps 655 mmHg 70%
    23:00 +30°C° 0.2 mm 1 mps 655 mmHg 72%

    20 July, Saturday

    Time Temperature Precipitation Wind Pressure Humidity
    00:00 +27°C° 0.6 mm 0 mps 655 mmHg 74%
    01:00 +27°C° 0.6 mm 0 mps 655 mmHg 75%
    02:00 +26°C° 0.6 mm 0 mps 654 mmHg 77%
    03:00 +26°C° 0.4 mm 0 mps 654 mmHg 76%
    04:00 +26°C° 0.4 mm 0 mps 654 mmHg 75%
    05:00 +28°C° 0.4 mm 1 mps 654 mmHg 75%
    06:00 +28°C° 0 mm 1 mps 654 mmHg 70%
    07:00 +29°C° 0 mm 1 mps 655 mmHg 65%
    08:00 +30°C° 0 mm 1 mps 655 mmHg 61%
    09:00 +31°C° 0 mm 1 mps 655 mmHg 58%
    10:00 +32°C° 0 mm 2 mps 655 mmHg 56%
    11:00 +34°C° 0 mm 3 mps 655 mmHg 53%
    12:00 +35°C° 0 mm 3 mps 655 mmHg 51%
    13:00 +36°C° 0 mm 3 mps 655 mmHg 49%
    14:00 +36°C° 0 mm 3 mps 655 mmHg 47%
    15:00 +36°C° 0.1 mm 3 mps 655 mmHg 48%
    16:00 +36°C° 0.1 mm 3 mps 654 mmHg 48%
    17:00 +36°C° 0.1 mm 3 mps 654 mmHg 49%
    18:00 +35°C° 0.2 mm 2 mps 654 mmHg 54%
    19:00 +34°C° 0.2 mm 2 mps 654 mmHg 58%
    20:00 +32°C° 0.2 mm 1 mps 654 mmHg 62%
    21:00 +31°C° 0.3 mm 1 mps 654 mmHg 64%
    22:00 +31°C° 0.3 mm 1 mps 654 mmHg 66%
    23:00 +31°C° 0.3 mm 1 mps 654 mmHg 68%
    Show more